Weather in Belogorye

Russia / Voronezh Oblast     50°29′35″N   40°00′11″E
temp.,
°C
wind,
m/s
gust,
m/s
humid.,
%
clouds,
%
prec.,
mm/h
press.,
hPa
HPBL,
m
26 february, fri
fri2600:00+1w51098100 0.2 1020272
03:00+2w41099100 0.6 1019251
06:00+2wnw4999100 0.1 1019203
09:00+2w47100100 0.6 1018139
12:00+3w49100100 0.0 1017158
15:00+4w71498100 0.0 1016386
18:00+4w71498100 0.0 1014450
21:00+3w51397100 0.1 1013359
27 february, sat
sat2700:00+2w61395100 0.0 1011411
03:00+2w51194100 0.0 1011441
06:00+1w51094100 0.0 1010425
09:00+2w51192100 0.0 1010615
12:00+3wnw71080100 0.0 1010863
15:00+2wnw61087100 0.1 1010684
18:00+1wnw6119699 0.1 1010563
21:000wnw599796 0.1 1011368
28 february, sun
sun2800:000nw4895100 0.1 1012420
03:000nw489597 0.1 1014377
06:00−2n478397 0.2 1015378
09:00−2nnw478091 0.2 1016607
12:00−2nnw567496 0.0 1017733
15:00−1nnw467298 0.0 1017771
18:00−1nnw4778100 0.0 1018758
21:00−2nnw268793 0.0 1020487
1 march, mon
mon100:00−2n358983 0.0 1020514
03:00−3n258770 0.1 1022389
06:00−4n35850 0.0 1023398
09:00−4n46770 0.0 1025479
12:00−2n456510 0.0 1027647
15:000nnw356443 0.0 1027769
18:00−2nw247570 0.0 1027144
21:00−2wnw268059 0.0 1029277
2 march, tue
tue200:00−1w487489 0.0 1028706
03:00−1w5117695 0.0 1026541
06:00−1w71386100 0.0 1023591
09:00+1w71386100 0.1 1021630
12:00+1wnw71185100 0.0 1020877
15:00+1wnw61288100 0.0 1018645
18:00+1nw71489100 0.0 1017695
21:00+1nw61297100 0.1 1018669